This is the latest recevied weather packets stored in our database for station/object BARLOW-WX. If no packets are shown the sender has not sent any weather packets the latest 10 day(s).
| Time | Temp. | Humidity | Pressure | Rain* | Wind** | Luminosity | Snow |
|---|---|---|---|---|---|---|---|
| 1777484777 | 10° C | 85% | 984.6 hPa | 0.51 mm | - | - | - |
| 1777483892 | 10° C | 83% | 984.3 hPa | 0.51 mm | - | - | - |
| 1777482977 | 10° C | 83% | 984.3 hPa | 0.25 mm | - | - | - |
| 1777482102 | 10° C | 83% | 984.3 hPa | 0.25 mm | - | - | - |
| 1777481178 | 10° C | 79% | 984.8 hPa | 0 mm | - | - | - |
| 1777480296 | 10° C | 82% | 984.7 hPa | 0 mm | - | - | - |
| 1777479379 | 10° C | 82% | 984.7 hPa | 0 mm | - | - | - |
| 1777478508 | 10° C | 82% | 984.7 hPa | 0 mm | - | - | - |
| 1777477577 | 10° C | 83% | 985.4 hPa | 0 mm | - | - | - |
| 1777476693 | 10° C | 82% | 986 hPa | 0 mm | - | - | - |
| 1777475777 | 10° C | 82% | 985.9 hPa | 0 mm | - | - | - |
| 1777474906 | 10° C | 82% | 985.9 hPa | 0 mm | - | - | - |
| 1777473977 | 10° C | 85% | 985.5 hPa | 0 mm | - | - | - |
| 1777473093 | 10° C | 84% | 985.3 hPa | 0 mm | - | - | - |
| 1777472178 | 10.56° C | 84% | 985.4 hPa | 0 mm | - | - | - |
| 1777471317 | 10.56° C | 84% | 985.4 hPa | 0 mm | - | - | - |
| 1777470377 | 10.56° C | 88% | 986.1 hPa | 0 mm | - | - | - |
| 1777469496 | 10.56° C | 88% | 986.1 hPa | 0 mm | - | - | - |
| 1777468578 | 10° C | 88% | 986 hPa | 0 mm | - | - | - |
| 1777467706 | 9.44° C | 88% | 986 hPa | 0 mm | - | - | - |
| 1777466777 | 9.44° C | 90% | 986.1 hPa | 0 mm | - | - | - |
| 1777465897 | 9.44° C | 89% | 986 hPa | 0 mm | - | - | - |
| 1777464977 | 9.44° C | 89% | 986 hPa | 0 mm | - | - | - |
| 1777464114 | 8.89° C | 89% | 986 hPa | 0 mm | - | - | - |
| 1777463177 | 8.89° C | 90% | 985.2 hPa | 0 mm | - | - | - |
* Rain latest hour (hover to see other rain measurements)
** Current wind speed in m/s (hover to see current wind gust speed)